Time,TemperatureF,DewpointF,PressureIn,WindDirection,WindDirectionDegrees,WindSpeedMPH,WindSpeedGustMPH,Humidity,HourlyPrecipIn,Conditions,Clouds,dailyrainin,SoftwareType,DateUTC
2013-06-18 00:00:00,75.2,68.2,29.97,SSW,202,0.0,0.0,79,0.00,CLR,,0.00,WeatherDisplay:10.37,2013-06-18 04:00:00,
2013-06-18 00:01:00,75.2,68.2,29.97,SSW,202,0.0,0.0,79,0.00,CLR,,0.00,WeatherDisplay:10.37,2013-06-18 04:01:00,
2013-06-18 00:02:00,75.2,68.2,29.97,SSW,202,0.0,0.0,79,0.00,CLR,,0.00,WeatherDisplay:10.37,2013-06-18 04:02:00,
2013-06-18 00:07:00,75.2,67.9,29.97,SSW,202,0.0,0.0,78,0.00,CLR,,0.00,WeatherDisplay:10.37,2013-06-18 04:07:00,
2013-06-18 00:12:00,75.0,67.7,29.97,SSW,202,0.0,0.0,78,0.00,CLR,,0.00,WeatherDisplay:10.37,2013-06-18 04:12:00,
2013-06-18 00:17:00,75.0,67.7,29.94,SSW,202,0.0,0.0,78,0.00,CLR,,0.00,WeatherDisplay:10.37,2013-06-18 04:17:00,
2013-06-18 00:22:00,75.0,67.7,29.94,SSW,202,0.0,0.0,78,0.00,CLR,,0.00,WeatherDisplay:10.37,2013-06-18 04:22:00,
2013-06-18 00:27:00,74.8,67.5,29.94,SSW,202,0.0,0.0,78,0.00,CLR,,0.00,WeatherDisplay:10.37,2013-06-18 04:27:00,
2013-06-18 00:32:00,74.7,67.3,29.94,SSW,202,0.0,0.0,78,0.00,CLR,,0.00,WeatherDisplay:10.37,2013-06-18 04:32:00,
2013-06-18 00:37:00,74.7,67.3,29.94,SSW,202,0.0,0.0,78,0.00,CLR,,0.00,WeatherDisplay:10.37,2013-06-18 04:37:00,
2013-06-18 00:42:00,74.5,67.2,29.94,SSW,202,0.0,0.0,78,0.00,CLR,,0.00,WeatherDisplay:10.37,2013-06-18 04:42:00,
2013-06-18 00:47:00,74.3,67.4,29.94,SSW,202,0.0,0.0,79,0.00,CLR,,0.00,WeatherDisplay:10.37,2013-06-18 04:47:00,
2013-06-18 00:52:00,74.3,67.4,29.94,SSW,202,0.0,0.0,79,0.00,CLR,,0.00,WeatherDisplay:10.37,2013-06-18 04:52:00,
2013-06-18 00:57:00,74.1,67.2,29.94,SSW,202,0.0,0.0,79,0.00,CLR,,0.00,WeatherDisplay:10.37,2013-06-18 04:57:00,
2013-06-18 01:02:00,73.9,67.4,29.94,SSW,202,0.0,0.0,80,0.00,CLR,,0.00,WeatherDisplay:10.37,2013-06-18 05:02:00,
2013-06-18 01:07:00,73.9,67.4,29.94,SSW,202,0.0,0.0,80,0.00,CLR,,0.00,WeatherDisplay:10.37,2013-06-18 05:07:00,
2013-06-18 01:12:00,73.8,67.2,29.94,SSW,202,0.0,0.0,80,0.00,CLR,,0.00,WeatherDisplay:10.37,2013-06-18 05:12:00,
2013-06-18 01:17:00,73.8,67.6,29.94,SSW,202,0.0,0.0,81,0.00,CLR,,0.00,WeatherDisplay:10.37,2013-06-18 05:17:00,
2013-06-18 01:22:00,73.6,67.4,29.94,SSW,202,0.0,0.0,81,0.00,CLR,,0.00,WeatherDisplay:10.37,2013-06-18 05:22:00,
2013-06-18 01:27:00,73.4,67.6,29.94,SSW,202,0.0,0.0,82,0.00,CLR,,0.00,WeatherDisplay:10.37,2013-06-18 05:27:00,
2013-06-18 01:32:00,73.2,67.7,29.94,SSW,202,0.0,0.0,83,0.00,CLR,,0.00,WeatherDisplay:10.37,2013-06-18 05:32:00,
2013-06-18 01:37:00,73.2,68.1,29.94,SSW,202,0.0,0.0,84,0.00,CLR,,0.00,WeatherDisplay:10.37,2013-06-18 05:37:00,
2013-06-18 01:42:00,73.0,68.3,29.94,SSW,202,0.0,0.0,85,0.00,CLR,,0.00,WeatherDisplay:10.37,2013-06-18 05:42:00,
2013-06-18 01:47:00,72.9,68.1,29.91,SSW,202,0.0,0.0,85,0.00,CLR,,0.00,WeatherDisplay:10.37,2013-06-18 05:47:00,
2013-06-18 01:52:00,72.9,68.1,29.91,SSW,202,0.0,0.0,85,0.00,CLR,,0.00,WeatherDisplay:10.37,2013-06-18 05:52:00,
2013-06-18 01:57:00,72.7,68.2,29.91,SSW,202,0.0,0.0,86,0.00,CLR,,0.00,WeatherDisplay:10.37,2013-06-18 05:57:00,
2013-06-18 02:02:00,72.5,68.4,29.91,SSW,202,0.0,0.0,87,0.00,CLR,,0.00,WeatherDisplay:10.37,2013-06-18 06:02:00,
2013-06-18 02:07:00,72.5,68.4,29.91,SSW,202,0.0,0.0,87,0.00,CLR,,0.00,WeatherDisplay:10.37,2013-06-18 06:07:00,
2013-06-18 02:12:00,72.3,68.6,29.91,SSW,202,0.0,0.0,88,0.00,CLR,,0.00,WeatherDisplay:10.37,2013-06-18 06:12:00,
2013-06-18 02:17:00,72.1,68.4,29.91,SSW,202,0.0,0.0,88,0.00,CLR,,0.00,WeatherDisplay:10.37,2013-06-18 06:17:00,
2013-06-18 02:22:00,72.0,68.5,29.91,SSW,202,0.0,0.0,89,0.00,CLR,,0.00,WeatherDisplay:10.37,2013-06-18 06:22:00,
2013-06-18 02:27:00,72.0,68.5,29.91,SSW,202,0.0,0.0,89,0.00,CLR,,0.00,WeatherDisplay:10.37,2013-06-18 06:27:00,
2013-06-18 02:32:00,71.8,68.7,29.91,SSW,202,0.0,0.0,90,0.00,CLR,,0.00,WeatherDisplay:10.37,2013-06-18 06:32:00,
2013-06-18 02:37:00,71.8,68.7,29.91,SSW,202,0.0,0.0,90,0.00,CLR,,0.00,WeatherDisplay:10.37,2013-06-18 06:37:00,
2013-06-18 02:42:00,71.8,68.7,29.91,SSW,202,0.0,0.0,90,0.00,CLR,,0.00,WeatherDisplay:10.37,2013-06-18 06:42:00,
2013-06-18 02:47:00,71.6,68.5,29.91,SSW,202,0.0,0.0,90,0.00,CLR,,0.00,WeatherDisplay:10.37,2013-06-18 06:47:00,
2013-06-18 02:52:00,71.6,68.8,29.91,SSW,202,0.0,0.0,91,0.00,CLR,,0.00,WeatherDisplay:10.37,2013-06-18 06:52:00,
2013-06-18 02:57:00,71.4,68.7,29.91,SSW,202,0.0,0.0,91,0.00,CLR,,0.00,WeatherDisplay:10.37,2013-06-18 06:57:00,
2013-06-18 03:02:00,71.4,68.7,29.91,SSW,202,0.0,0.0,91,0.00,CLR,,0.00,WeatherDisplay:10.37,2013-06-18 07:02:00,
2013-06-18 03:07:00,71.4,69.0,29.91,SSW,202,0.0,0.0,92,0.00,CLR,,0.00,WeatherDisplay:10.37,2013-06-18 07:07:00,
2013-06-18 03:12:00,71.4,69.0,29.91,SSW,202,0.0,0.0,92,0.00,CLR,,0.00,WeatherDisplay:10.37,2013-06-18 07:12:00,
2013-06-18 03:17:00,71.2,68.8,29.88,SSW,202,0.0,0.0,92,0.00,CLR,,0.00,WeatherDisplay:10.37,2013-06-18 07:17:00,
2013-06-18 03:22:00,71.2,68.8,29.88,SSW,202,0.0,0.0,92,0.00,CLR,,0.00,WeatherDisplay:10.37,2013-06-18 07:22:00,
2013-06-18 03:27:00,71.2,69.1,29.88,SSW,202,0.0,0.0,93,0.00,CLR,,0.00,WeatherDisplay:10.37,2013-06-18 07:27:00,
2013-06-18 03:32:00,71.1,68.9,29.88,SSW,202,0.0,0.0,93,0.00,CLR,,0.00,WeatherDisplay:10.37,2013-06-18 07:32:00,
2013-06-18 03:37:00,71.1,68.9,29.88,SSW,202,0.0,0.0,93,0.00,CLR,,0.00,WeatherDisplay:10.37,2013-06-18 07:37:00,
2013-06-18 03:42:00,71.1,68.9,29.88,SSW,202,0.0,0.0,93,0.00,CLR,,0.00,WeatherDisplay:10.37,2013-06-18 07:42:00,
2013-06-18 03:47:00,70.9,69.1,29.88,SSW,202,0.0,0.0,94,0.00,CLR,,0.00,WeatherDisplay:10.37,2013-06-18 07:47:00,
2013-06-18 03:52:00,70.9,69.1,29.88,SSW,202,0.0,0.0,94,0.00,CLR,,0.00,WeatherDisplay:10.37,2013-06-18 07:52:00,
2013-06-18 03:57:00,70.9,69.1,29.88,SSW,202,0.0,0.0,94,0.00,CLR,,0.00,WeatherDisplay:10.37,2013-06-18 07:57:00,
2013-06-18 04:02:00,70.9,69.1,29.88,SSW,202,0.0,0.0,94,0.00,CLR,,0.00,WeatherDisplay:10.37,2013-06-18 08:02:00,
2013-06-18 04:07:00,70.7,68.9,29.88,SSW,202,0.0,0.0,94,0.00,CLR,,0.00,WeatherDisplay:10.37,2013-06-18 08:07:00,
2013-06-18 04:12:00,70.7,68.9,29.88,SSW,202,0.0,0.0,94,0.00,CLR,,0.00,WeatherDisplay:10.37,2013-06-18 08:12:00,
2013-06-18 04:17:00,70.5,68.7,29.88,SSW,202,0.0,0.0,94,0.00,CLR,,0.00,WeatherDisplay:10.37,2013-06-18 08:17:00,
2013-06-18 04:22:00,70.5,69.0,29.88,SSW,202,0.0,0.0,95,0.00,CLR,,0.00,WeatherDisplay:10.37,2013-06-18 08:22:00,
2013-06-18 04:27:00,70.5,69.0,29.88,SSW,202,0.0,0.0,95,0.00,CLR,,0.00,WeatherDisplay:10.37,2013-06-18 08:27:00,
2013-06-18 04:32:00,70.5,69.0,29.88,SSW,202,0.0,0.0,95,0.00,CLR,,0.00,WeatherDisplay:10.37,2013-06-18 08:32:00,
2013-06-18 04:37:00,70.3,68.8,29.88,SSW,202,0.0,0.0,95,0.00,CLR,,0.00,WeatherDisplay:10.37,2013-06-18 08:37:00,
2013-06-18 04:42:00,70.3,68.8,29.88,SSW,202,0.0,0.0,95,0.00,CLR,,0.00,WeatherDisplay:10.37,2013-06-18 08:42:00,
2013-06-18 04:47:00,70.3,68.8,29.88,SSW,202,0.0,0.0,95,0.00,CLR,,0.00,WeatherDisplay:10.37,2013-06-18 08:47:00,
2013-06-18 04:52:00,70.5,69.0,29.88,SSW,202,0.0,0.0,95,0.00,CLR,,0.00,WeatherDisplay:10.37,2013-06-18 08:52:00,
2013-06-18 04:57:00,70.5,69.0,29.88,SSW,202,0.0,0.0,95,0.00,CLR,,0.00,WeatherDisplay:10.37,2013-06-18 08:57:00,
2013-06-18 05:02:00,70.5,69.0,29.88,SSW,202,0.0,0.0,95,0.00,CLR,,0.00,WeatherDisplay:10.37,2013-06-18 09:02:00,
2013-06-18 05:07:00,70.5,69.0,29.88,SSW,202,0.0,0.0,95,0.00,CLR,,0.00,WeatherDisplay:10.37,2013-06-18 09:07:00,
2013-06-18 05:12:00,70.5,69.0,29.88,SSW,202,0.0,0.0,95,0.00,CLR,,0.00,WeatherDisplay:10.37,2013-06-18 09:12:00,
2013-06-18 05:17:00,70.7,69.2,29.88,SSW,202,0.0,0.0,95,0.00,CLR,,0.00,WeatherDisplay:10.37,2013-06-18 09:17:00,
2013-06-18 05:22:00,70.7,69.2,29.88,SSW,202,0.0,0.0,95,0.00,CLR,,0.00,WeatherDisplay:10.37,2013-06-18 09:22:00,
2013-06-18 05:27:00,70.9,69.1,29.88,SSW,202,0.0,0.0,94,0.00,CLR,,0.00,WeatherDisplay:10.37,2013-06-18 09:27:00,
2013-06-18 05:32:00,70.9,69.1,29.88,SSW,202,0.0,0.0,94,0.00,CLR,,0.00,WeatherDisplay:10.37,2013-06-18 09:32:00,
2013-06-18 05:37:00,70.9,69.1,29.88,SSW,202,0.0,0.0,94,0.00,CLR,,0.00,WeatherDisplay:10.37,2013-06-18 09:37:00,
2013-06-18 05:42:00,70.9,69.1,29.88,SSW,202,0.0,0.0,94,0.00,CLR,,0.00,WeatherDisplay:10.37,2013-06-18 09:42:00,
2013-06-18 05:47:00,70.9,68.8,29.88,SSW,202,0.0,0.0,93,0.00,CLR,,0.00,WeatherDisplay:10.37,2013-06-18 09:47:00,
2013-06-18 05:52:00,71.1,68.9,29.88,SSW,202,0.0,0.0,93,0.00,CLR,,0.00,WeatherDisplay:10.37,2013-06-18 09:52:00,
2013-06-18 05:57:00,71.1,68.9,29.88,SSW,202,0.0,0.0,93,0.00,CLR,,0.00,WeatherDisplay:10.37,2013-06-18 09:57:00,
2013-06-18 06:02:00,71.1,68.9,29.88,SSW,202,0.0,0.0,93,0.00,CLR,,0.00,WeatherDisplay:10.37,2013-06-18 10:02:00,
2013-06-18 06:07:00,71.1,68.6,29.88,SSW,202,0.0,0.0,92,0.00,CLR,,0.00,WeatherDisplay:10.37,2013-06-18 10:07:00,
2013-06-18 06:12:00,71.1,68.6,29.88,SSW,202,0.0,0.0,92,0.00,CLR,,0.00,WeatherDisplay:10.37,2013-06-18 10:12:00,
2013-06-18 06:17:00,71.1,68.6,29.91,SSW,202,0.0,0.0,92,0.00,CLR,,0.00,WeatherDisplay:10.37,2013-06-18 10:17:00,
2013-06-18 06:22:00,71.2,68.8,29.91,SSW,202,0.0,0.0,92,0.00,CLR,,0.00,WeatherDisplay:10.37,2013-06-18 10:22:00,
2013-06-18 06:27:00,71.2,68.8,29.91,SSW,202,0.0,0.0,92,0.00,CLR,,0.00,WeatherDisplay:10.37,2013-06-18 10:27:00,
2013-06-18 06:32:00,71.2,68.8,29.91,SSW,202,0.0,0.0,92,0.00,CLR,,0.00,WeatherDisplay:10.37,2013-06-18 10:32:00,
2013-06-18 06:37:00,71.2,68.8,29.91,SSW,202,0.0,0.0,92,0.00,CLR,,0.00,WeatherDisplay:10.37,2013-06-18 10:37:00,
2013-06-18 06:42:00,71.2,68.8,29.91,SSW,202,0.0,0.0,92,0.00,CLR,,0.00,WeatherDisplay:10.37,2013-06-18 10:42:00,
2013-06-18 06:47:00,71.2,68.5,29.91,SSW,202,0.0,0.0,91,0.00,CLR,,0.00,WeatherDisplay:10.37,2013-06-18 10:47:00,
2013-06-18 06:52:00,71.4,68.7,29.91,SSW,202,0.0,0.0,91,0.00,CLR,,0.00,WeatherDisplay:10.37,2013-06-18 10:52:00,
2013-06-18 06:57:00,71.4,68.7,29.91,SSW,202,0.0,0.0,91,0.00,CLR,,0.00,WeatherDisplay:10.37,2013-06-18 10:57:00,
2013-06-18 07:02:00,71.4,68.7,29.91,SSW,202,0.0,0.0,91,0.00,CLR,,0.00,WeatherDisplay:10.37,2013-06-18 11:02:00,
2013-06-18 07:07:00,71.4,68.7,29.91,SSW,202,0.0,0.0,91,0.00,CLR,,0.00,WeatherDisplay:10.37,2013-06-18 11:07:00,
2013-06-18 07:12:00,71.6,68.8,29.91,SSW,202,0.0,0.0,91,0.00,CLR,,0.00,WeatherDisplay:10.37,2013-06-18 11:12:00,
2013-06-18 07:17:00,71.6,68.8,29.91,SSW,202,0.0,0.0,91,0.00,CLR,,0.00,WeatherDisplay:10.37,2013-06-18 11:17:00,
2013-06-18 07:22:00,71.6,68.8,29.91,SSW,202,0.0,0.0,91,0.00,CLR,,0.00,WeatherDisplay:10.37,2013-06-18 11:22:00,
2013-06-18 07:27:00,71.8,69.0,29.91,SSW,202,0.0,0.0,91,0.00,CLR,,0.00,WeatherDisplay:10.37,2013-06-18 11:27:00,
2013-06-18 07:32:00,71.8,68.7,29.91,SSW,202,0.0,0.0,90,0.00,CLR,,0.00,WeatherDisplay:10.37,2013-06-18 11:32:00,
2013-06-18 07:37:00,71.8,69.0,29.91,SSW,202,0.0,0.0,91,0.00,CLR,,0.00,WeatherDisplay:10.37,2013-06-18 11:37:00,
2013-06-18 07:42:00,71.8,69.0,29.91,SSW,202,0.0,0.0,91,0.00,CLR,,0.00,WeatherDisplay:10.37,2013-06-18 11:42:00,
2013-06-18 07:47:00,71.8,69.0,29.88,SSW,202,0.0,0.0,91,0.00,CLR,,0.00,WeatherDisplay:10.37,2013-06-18 11:47:00,
2013-06-18 07:52:00,71.8,69.0,29.88,SSW,202,0.0,0.0,91,0.00,CLR,,0.00,WeatherDisplay:10.37,2013-06-18 11:52:00,
2013-06-18 07:57:00,71.8,69.3,29.88,SSW,202,0.0,0.0,92,0.00,CLR,,0.00,WeatherDisplay:10.37,2013-06-18 11:57:00,
2013-06-18 08:02:00,71.8,69.3,29.88,SSW,202,0.0,0.0,92,0.00,CLR,,0.00,WeatherDisplay:10.37,2013-06-18 12:02:00,
2013-06-18 08:07:00,71.8,69.3,29.88,SSW,202,0.0,0.0,92,0.00,CLR,,0.00,WeatherDisplay:10.37,2013-06-18 12:07:00,
2013-06-18 08:12:00,71.8,69.6,29.88,SSW,202,0.0,0.0,93,0.00,CLR,,0.00,WeatherDisplay:10.37,2013-06-18 12:12:00,
2013-06-18 08:17:00,71.8,69.6,29.88,SSW,202,0.0,0.0,93,0.00,CLR,,0.00,WeatherDisplay:10.37,2013-06-18 12:17:00,
2013-06-18 08:22:00,72.0,69.8,29.88,SSW,202,0.0,0.0,93,0.00,CLR,,0.00,WeatherDisplay:10.37,2013-06-18 12:22:00,
2013-06-18 08:27:00,72.0,69.8,29.88,SSW,202,0.0,0.0,93,0.00,CLR,,0.00,WeatherDisplay:10.37,2013-06-18 12:27:00,
2013-06-18 08:32:00,72.0,70.1,29.88,SSW,202,0.0,0.0,94,0.00,CLR,,0.00,WeatherDisplay:10.37,2013-06-18 12:32:00,
2013-06-18 08:37:00,72.1,70.3,29.88,SSW,202,0.0,0.0,94,0.00,CLR,,0.00,WeatherDisplay:10.37,2013-06-18 12:37:00,
2013-06-18 08:42:00,72.1,70.3,29.88,SSW,202,0.0,0.0,94,0.00,CLR,,0.00,WeatherDisplay:10.37,2013-06-18 12:42:00,
2013-06-18 08:47:00,72.1,70.3,29.88,SSW,202,0.0,0.0,94,0.00,CLR,,0.00,WeatherDisplay:10.37,2013-06-18 12:47:00,
2013-06-18 08:52:00,72.3,70.5,29.88,SSW,202,0.0,0.0,94,0.00,CLR,,0.00,WeatherDisplay:10.37,2013-06-18 12:52:00,
2013-06-18 08:57:00,72.5,70.4,29.88,SSW,202,0.0,0.0,93,0.00,CLR,,0.00,WeatherDisplay:10.37,2013-06-18 12:57:00,
2013-06-18 09:02:00,72.5,70.4,29.91,SSW,202,0.0,0.0,93,0.00,CLR,,0.00,WeatherDisplay:10.37,2013-06-18 13:02:00,
2013-06-18 09:07:00,72.9,70.7,29.91,SSW,202,0.0,0.0,93,0.00,CLR,,0.00,WeatherDisplay:10.37,2013-06-18 13:07:00,
2013-06-18 09:12:00,72.9,70.4,29.91,SSW,202,0.0,0.0,92,0.00,CLR,,0.00,WeatherDisplay:10.37,2013-06-18 13:12:00,
2013-06-18 09:17:00,72.9,70.1,29.88,SSW,202,0.0,0.0,91,0.00,CLR,,0.00,WeatherDisplay:10.37,2013-06-18 13:17:00,
2013-06-18 09:22:00,73.0,70.3,29.88,SSW,202,0.0,0.0,91,0.00,CLR,,0.00,WeatherDisplay:10.37,2013-06-18 13:22:00,
2013-06-18 09:27:00,73.0,69.9,29.88,SSW,202,0.0,0.0,90,0.00,CLR,,0.00,WeatherDisplay:10.37,2013-06-18 13:27:00,
2013-06-18 09:32:00,73.2,70.1,29.88,SSW,202,0.0,0.0,90,0.00,CLR,,0.00,WeatherDisplay:10.37,2013-06-18 13:32:00,
2013-06-18 09:37:00,73.2,69.8,29.88,SSW,202,0.0,0.0,89,0.00,CLR,,0.00,WeatherDisplay:10.37,2013-06-18 13:37:00,
2013-06-18 09:42:00,73.4,69.6,29.88,SSW,202,0.0,0.0,88,0.00,CLR,,0.00,WeatherDisplay:10.37,2013-06-18 13:42:00,
2013-06-18 09:47:00,73.4,69.3,29.88,SSW,202,0.0,0.0,87,0.00,CLR,,0.00,WeatherDisplay:10.37,2013-06-18 13:47:00,
2013-06-18 09:52:00,73.6,69.5,29.88,SSW,202,0.0,0.0,87,0.00,CLR,,0.00,WeatherDisplay:10.37,2013-06-18 13:52:00,
2013-06-18 09:57:00,73.8,69.6,29.88,SSW,202,0.0,0.0,87,0.00,CLR,,0.00,WeatherDisplay:10.37,2013-06-18 13:57:00,
2013-06-18 10:02:00,74.1,69.7,29.88,SSW,202,0.0,0.0,86,0.00,CLR,,0.00,WeatherDisplay:10.37,2013-06-18 14:02:00,
2013-06-18 10:07:00,74.3,69.8,29.88,SSW,202,0.0,0.0,86,0.00,CLR,,0.00,WeatherDisplay:10.37,2013-06-18 14:07:00,
2013-06-18 10:12:00,74.5,70.0,29.88,SSW,202,0.0,0.0,86,0.00,CLR,,0.00,WeatherDisplay:10.37,2013-06-18 14:12:00,
2013-06-18 10:17:00,74.3,69.5,29.88,SSW,202,0.0,0.0,85,0.00,CLR,,0.00,WeatherDisplay:10.37,2013-06-18 14:17:00,
2013-06-18 10:22:00,74.3,69.1,29.88,SSW,202,0.0,0.0,84,0.00,CLR,,0.00,WeatherDisplay:10.37,2013-06-18 14:22:00,
2013-06-18 10:27:00,74.3,68.8,29.88,SSW,202,0.0,0.0,83,0.00,CLR,,0.00,WeatherDisplay:10.37,2013-06-18 14:27:00,
2013-06-18 10:32:00,74.3,68.8,29.88,SSW,202,0.0,0.0,83,0.00,CLR,,0.00,WeatherDisplay:10.37,2013-06-18 14:32:00,
2013-06-18 10:37:00,74.3,68.8,29.88,SSW,202,0.0,0.0,83,0.00,CLR,,0.00,WeatherDisplay:10.37,2013-06-18 14:37:00,
2013-06-18 10:42:00,74.3,68.8,29.88,SSW,202,0.0,0.0,83,0.00,CLR,,0.00,WeatherDisplay:10.37,2013-06-18 14:42:00,
2013-06-18 10:47:00,74.5,69.3,29.88,SSW,202,0.0,0.0,84,0.00,CLR,,0.00,WeatherDisplay:10.37,2013-06-18 14:47:00,
2013-06-18 10:52:00,74.7,69.2,29.88,SSW,202,0.0,0.0,83,0.00,CLR,,0.00,WeatherDisplay:10.37,2013-06-18 14:52:00,
2013-06-18 10:57:00,74.8,69.0,29.88,SSW,202,0.0,0.0,82,0.00,CLR,,0.00,WeatherDisplay:10.37,2013-06-18 14:57:00,
2013-06-18 11:02:00,74.7,68.8,29.88,SSW,202,0.0,0.0,82,0.00,CLR,,0.00,WeatherDisplay:10.37,2013-06-18 15:02:00,
2013-06-18 11:07:00,74.7,68.8,29.88,SSW,202,0.0,0.0,82,0.00,CLR,,0.00,WeatherDisplay:10.37,2013-06-18 15:07:00,
2013-06-18 11:12:00,74.8,68.6,29.88,SSW,202,0.0,0.0,81,0.00,CLR,,0.00,WeatherDisplay:10.37,2013-06-18 15:12:00,
2013-06-18 11:17:00,75.0,68.8,29.88,SSW,202,0.0,0.0,81,0.00,CLR,,0.00,WeatherDisplay:10.37,2013-06-18 15:17:00,
2013-06-18 11:22:00,75.0,68.8,29.88,SSW,202,0.0,0.0,81,0.00,CLR,,0.00,WeatherDisplay:10.37,2013-06-18 15:22:00,
2013-06-18 11:27:00,75.0,68.4,29.88,SSW,202,0.0,0.0,80,0.00,CLR,,0.00,WeatherDisplay:10.37,2013-06-18 15:27:00,
2013-06-18 11:32:00,75.0,68.4,29.88,SSW,202,0.0,0.0,80,0.00,CLR,,0.00,WeatherDisplay:10.37,2013-06-18 15:32:00,
2013-06-18 11:37:00,75.0,68.4,29.88,SSW,202,0.0,0.0,80,0.00,CLR,,0.00,WeatherDisplay:10.37,2013-06-18 15:37:00,
2013-06-18 11:42:00,75.0,68.8,29.88,SSW,202,0.0,0.0,81,0.00,CLR,,0.00,WeatherDisplay:10.37,2013-06-18 15:42:00,
2013-06-18 11:47:00,75.4,68.8,29.88,SSW,202,0.0,0.0,80,0.00,CLR,,0.00,WeatherDisplay:10.37,2013-06-18 15:47:00,
2013-06-18 11:52:00,75.6,68.6,29.88,SSW,202,0.0,0.0,79,0.00,CLR,,0.00,WeatherDisplay:10.37,2013-06-18 15:52:00,
2013-06-18 11:57:00,76.1,69.1,29.88,SSW,202,0.0,0.0,79,0.00,CLR,,0.00,WeatherDisplay:10.37,2013-06-18 15:57:00,
2013-06-18 12:02:00,76.3,68.5,29.88,SSW,202,0.0,0.0,77,0.00,CLR,,0.00,WeatherDisplay:10.37,2013-06-18 16:02:00,
2013-06-18 12:07:00,76.6,68.9,29.88,SSW,202,0.0,0.0,77,0.00,CLR,,0.00,WeatherDisplay:10.37,2013-06-18 16:07:00,
2013-06-18 12:12:00,76.6,68.9,29.88,SSW,202,0.0,0.0,77,0.00,CLR,,0.00,WeatherDisplay:10.37,2013-06-18 16:12:00,
2013-06-18 12:17:00,76.8,68.3,29.88,SSW,202,0.0,0.0,75,0.00,CLR,,0.00,WeatherDisplay:10.37,2013-06-18 16:17:00,
2013-06-18 12:22:00,76.8,68.3,29.88,SSW,202,0.0,0.0,75,0.00,CLR,,0.00,WeatherDisplay:10.37,2013-06-18 16:22:00,
2013-06-18 12:27:00,76.8,68.3,29.85,SSW,202,0.0,0.0,75,0.00,CLR,,0.00,WeatherDisplay:10.37,2013-06-18 16:27:00,
2013-06-18 12:32:00,77.0,68.5,29.85,SSW,202,0.0,0.0,75,0.00,CLR,,0.00,WeatherDisplay:10.37,2013-06-18 16:32:00,
2013-06-18 12:37:00,77.4,69.2,29.85,SSW,202,0.0,0.0,76,0.00,CLR,,0.00,WeatherDisplay:10.37,2013-06-18 16:37:00,
2013-06-18 12:42:00,78.4,69.5,29.85,SSW,202,0.0,0.0,74,0.00,CLR,,0.00,WeatherDisplay:10.37,2013-06-18 16:42:00,
2013-06-18 12:47:00,79.3,68.3,29.85,SSW,202,0.0,0.0,69,0.00,CLR,,0.00,WeatherDisplay:10.37,2013-06-18 16:47:00,
2013-06-18 12:52:00,79.7,68.2,29.85,SSW,202,0.0,0.0,68,0.00,CLR,,0.00,WeatherDisplay:10.37,2013-06-18 16:52:00,
2013-06-18 12:57:00,80.6,68.2,29.85,SSW,202,0.0,0.0,66,0.00,CLR,,0.00,WeatherDisplay:10.37,2013-06-18 16:57:00,
2013-06-18 13:02:00,80.4,67.6,29.85,SSW,202,0.0,0.0,65,0.00,CLR,,0.00,WeatherDisplay:10.37,2013-06-18 17:02:00,
2013-06-18 13:07:00,80.4,67.6,29.85,SSW,202,0.0,0.0,65,0.00,CLR,,0.00,WeatherDisplay:10.37,2013-06-18 17:07:00,
2013-06-18 13:12:00,80.2,67.0,29.85,SSW,202,0.0,0.0,64,0.00,CLR,,0.00,WeatherDisplay:10.37,2013-06-18 17:12:00,
2013-06-18 13:17:00,80.4,67.6,29.85,SSW,202,0.0,0.0,65,0.00,CLR,,0.00,WeatherDisplay:10.37,2013-06-18 17:17:00,
2013-06-18 13:22:00,81.0,68.5,29.85,SSW,202,0.0,0.0,66,0.00,CLR,,0.00,WeatherDisplay:10.37,2013-06-18 17:22:00,
2013-06-18 13:27:00,81.0,67.2,29.85,SSW,202,0.0,0.0,63,0.00,CLR,,0.00,WeatherDisplay:10.37,2013-06-18 17:27:00,
2013-06-18 13:32:00,80.1,66.3,29.85,SSW,202,0.0,0.0,63,0.00,CLR,,0.00,WeatherDisplay:10.37,2013-06-18 17:32:00,
2013-06-18 13:37:00,80.2,67.0,29.85,SSW,202,0.0,0.0,64,0.00,CLR,,0.00,WeatherDisplay:10.37,2013-06-18 17:37:00,
2013-06-18 13:42:00,80.2,67.4,29.85,SSW,202,0.0,0.0,65,0.00,CLR,,0.00,WeatherDisplay:10.37,2013-06-18 17:42:00,
2013-06-18 13:47:00,80.4,67.6,29.85,SSW,202,0.0,0.0,65,0.00,CLR,,0.00,WeatherDisplay:10.37,2013-06-18 17:47:00,
2013-06-18 13:52:00,81.0,67.6,29.85,SSW,202,0.0,0.0,64,0.00,CLR,,0.00,WeatherDisplay:10.37,2013-06-18 17:52:00,
2013-06-18 13:57:00,81.7,68.3,29.85,SSW,202,0.0,0.0,64,0.00,CLR,,0.00,WeatherDisplay:10.37,2013-06-18 17:57:00,
2013-06-18 14:02:00,82.6,67.3,29.83,SSW,202,0.0,0.0,60,0.00,CLR,,0.00,WeatherDisplay:10.37,2013-06-18 18:02:00,
2013-06-18 14:07:00,83.3,66.5,29.83,SSW,202,0.0,0.0,57,0.00,CLR,,0.00,WeatherDisplay:10.37,2013-06-18 18:07:00,
2013-06-18 14:12:00,84.0,66.6,29.83,SSW,202,0.0,0.0,56,0.00,CLR,,0.00,WeatherDisplay:10.37,2013-06-18 18:12:00,
2013-06-18 14:17:00,83.5,65.1,29.83,SSW,202,0.0,0.0,54,0.00,CLR,,0.00,WeatherDisplay:10.37,2013-06-18 18:17:00,
2013-06-18 14:22:00,82.4,65.1,29.83,SSW,202,0.0,0.0,56,0.00,CLR,,0.00,WeatherDisplay:10.37,2013-06-18 18:22:00,
2013-06-18 14:27:00,82.0,66.3,29.83,SSW,202,0.0,0.0,59,0.00,CLR,,0.00,WeatherDisplay:10.37,2013-06-18 18:27:00,
2013-06-18 14:32:00,82.4,67.1,29.83,SSW,202,0.0,0.0,60,0.00,CLR,,0.00,WeatherDisplay:10.37,2013-06-18 18:32:00,
2013-06-18 14:37:00,82.8,66.5,29.83,SSW,202,0.0,0.0,58,0.00,CLR,,0.00,WeatherDisplay:10.37,2013-06-18 18:37:00,
2013-06-18 14:42:00,84.2,67.3,29.83,SSW,202,0.0,0.0,57,0.00,CLR,,0.00,WeatherDisplay:10.37,2013-06-18 18:42:00,
2013-06-18 14:47:00,84.4,67.0,29.83,SSW,202,0.0,0.0,56,0.00,CLR,,0.00,WeatherDisplay:10.37,2013-06-18 18:47:00,
2013-06-18 14:52:00,85.3,67.3,29.83,SSW,202,0.0,0.0,55,0.00,CLR,,0.00,WeatherDisplay:10.37,2013-06-18 18:52:00,
2013-06-18 14:57:00,85.1,64.4,29.80,SSW,202,0.0,0.0,50,0.00,CLR,,0.00,WeatherDisplay:10.37,2013-06-18 18:57:00,
2013-06-18 15:02:00,85.3,64.0,29.80,SSW,202,0.0,0.0,49,0.00,CLR,,0.00,WeatherDisplay:10.37,2013-06-18 19:02:00,
2013-06-18 15:07:00,84.4,65.4,29.80,SSW,202,0.0,0.0,53,0.00,CLR,,0.00,WeatherDisplay:10.37,2013-06-18 19:07:00,
2013-06-18 15:12:00,83.8,65.4,29.80,SSW,202,0.0,0.0,54,0.00,CLR,,0.00,WeatherDisplay:10.37,2013-06-18 19:12:00,
2013-06-18 15:17:00,83.5,65.6,29.80,SSW,202,0.0,0.0,55,0.00,CLR,,0.00,WeatherDisplay:10.37,2013-06-18 19:17:00,
2013-06-18 15:22:00,82.8,66.5,29.80,SSW,202,0.0,0.0,58,0.00,CLR,,0.00,WeatherDisplay:10.37,2013-06-18 19:22:00,
2013-06-18 15:27:00,82.9,68.1,29.80,SSW,202,0.0,0.0,61,0.00,CLR,,0.00,WeatherDisplay:10.37,2013-06-18 19:27:00,
2013-06-18 15:32:00,83.8,69.0,29.80,SSW,202,0.0,0.0,61,0.00,CLR,,0.00,WeatherDisplay:10.37,2013-06-18 19:32:00,
2013-06-18 15:37:00,84.4,68.5,29.80,SSW,202,0.0,0.0,59,0.00,CLR,,0.00,WeatherDisplay:10.37,2013-06-18 19:37:00,
2013-06-18 15:42:00,84.4,67.5,29.80,SSW,202,0.0,0.0,57,0.00,CLR,,0.00,WeatherDisplay:10.37,2013-06-18 19:42:00,
2013-06-18 15:47:00,83.3,67.5,29.80,SSW,202,0.0,0.0,59,0.00,CLR,,0.00,WeatherDisplay:10.37,2013-06-18 19:47:00,
2013-06-18 15:52:00,83.7,68.8,29.80,SSW,202,0.0,0.0,61,0.00,CLR,,0.00,WeatherDisplay:10.37,2013-06-18 19:52:00,
2013-06-18 15:57:00,83.3,68.4,29.80,SSW,202,0.0,0.0,61,0.00,CLR,,0.00,WeatherDisplay:10.37,2013-06-18 19:57:00,
2013-06-18 16:02:00,82.9,68.6,29.80,SSW,202,0.0,0.0,62,0.00,CLR,,0.00,WeatherDisplay:10.37,2013-06-18 20:02:00,
2013-06-18 16:07:00,82.2,69.3,29.80,SSW,202,0.0,0.0,65,0.00,CLR,,0.00,WeatherDisplay:10.37,2013-06-18 20:07:00,
2013-06-18 16:12:00,81.5,68.1,29.77,SSW,202,0.0,0.0,64,0.00,CLR,,0.00,WeatherDisplay:10.37,2013-06-18 20:12:00,
2013-06-18 16:17:00,81.5,68.6,29.77,SSW,202,0.0,0.0,65,0.00,CLR,,0.00,WeatherDisplay:10.37,2013-06-18 20:17:00,
2013-06-18 16:22:00,82.6,69.2,29.77,SSW,202,0.0,0.0,64,0.00,CLR,,0.00,WeatherDisplay:10.37,2013-06-18 20:22:00,
2013-06-18 16:27:00,84.0,69.1,29.77,SSW,202,0.0,0.0,61,0.00,CLR,,0.00,WeatherDisplay:10.37,2013-06-18 20:27:00,
2013-06-18 16:32:00,84.7,68.3,29.77,SSW,202,0.0,0.0,58,0.00,CLR,,0.00,WeatherDisplay:10.37,2013-06-18 20:32:00,
2013-06-18 16:37:00,84.9,68.0,29.77,SSW,202,0.0,0.0,57,0.00,CLR,,0.00,WeatherDisplay:10.37,2013-06-18 20:37:00,
2013-06-18 16:42:00,84.4,68.0,29.77,SSW,202,0.0,0.0,58,0.00,CLR,,0.00,WeatherDisplay:10.37,2013-06-18 20:42:00,
2013-06-18 16:47:00,82.0,67.3,29.77,SSW,202,0.0,0.0,61,0.00,CLR,,0.00,WeatherDisplay:10.37,2013-06-18 20:47:00,
2013-06-18 16:52:00,81.7,67.9,29.77,SSW,202,0.0,0.0,63,0.00,CLR,,0.00,WeatherDisplay:10.37,2013-06-18 20:52:00,
2013-06-18 16:57:00,81.3,69.3,29.77,SSW,202,0.0,0.0,67,0.00,CLR,,0.00,WeatherDisplay:10.37,2013-06-18 20:57:00,
2013-06-18 17:02:00,80.6,69.5,29.77,SSW,202,0.0,0.0,69,0.00,CLR,,0.00,WeatherDisplay:10.37,2013-06-18 21:02:00,
2013-06-18 17:07:00,79.9,69.6,29.77,SSW,202,0.0,0.0,71,0.00,CLR,,0.00,WeatherDisplay:10.37,2013-06-18 21:07:00,
2013-06-18 17:12:00,78.1,70.3,29.77,SSW,202,0.0,0.0,77,0.00,CLR,,0.00,WeatherDisplay:10.37,2013-06-18 21:12:00,
2013-06-18 17:17:00,77.4,71.8,29.77,SSW,202,0.0,0.0,83,0.00,CLR,,0.00,WeatherDisplay:10.37,2013-06-18 21:17:00,
2013-06-18 17:22:00,76.5,71.6,29.77,SSW,202,0.0,0.0,85,0.04,RA,,0.04,WeatherDisplay:10.37,2013-06-18 21:22:00,
2013-06-18 17:27:00,75.4,71.6,29.77,SSW,202,0.0,0.0,88,0.04,RA,,0.04,WeatherDisplay:10.37,2013-06-18 21:27:00,
2013-06-18 17:32:00,75.7,72.3,29.77,SSW,202,0.0,0.0,89,0.04,CLR,,0.04,WeatherDisplay:10.37,2013-06-18 21:32:00,
2013-06-18 17:37:00,75.9,72.8,29.77,SSW,202,0.0,0.0,90,0.04,CLR,,0.04,WeatherDisplay:10.37,2013-06-18 21:37:00,
2013-06-18 17:42:00,75.9,72.8,29.77,SSW,202,0.0,0.0,90,0.04,CLR,,0.04,WeatherDisplay:10.37,2013-06-18 21:42:00,
2013-06-18 17:47:00,76.1,73.3,29.77,SSW,202,0.0,0.0,91,0.04,CLR,,0.04,WeatherDisplay:10.37,2013-06-18 21:47:00,
2013-06-18 17:52:00,76.3,73.8,29.77,SSW,202,0.0,0.0,92,0.04,CLR,,0.04,WeatherDisplay:10.37,2013-06-18 21:52:00,
2013-06-18 17:57:00,76.1,73.6,29.77,SSW,202,0.0,0.0,92,0.08,RA,,0.12,WeatherDisplay:10.37,2013-06-18 21:57:00,
2013-06-18 18:02:00,75.0,72.5,29.77,SSW,202,0.0,0.0,92,0.21,RA,,0.21,WeatherDisplay:10.37,2013-06-18 22:02:00,
2013-06-18 18:07:00,74.5,72.0,29.77,SSW,202,0.0,0.0,92,0.25,RA,,0.25,WeatherDisplay:10.37,2013-06-18 22:07:00,
2013-06-18 18:12:00,74.1,71.6,29.77,SSW,202,0.0,0.0,92,0.25,RA,,0.29,WeatherDisplay:10.37,2013-06-18 22:12:00,
2013-06-18 18:17:00,73.9,71.8,29.77,SSW,202,0.0,0.0,93,0.37,RA,,0.37,WeatherDisplay:10.37,2013-06-18 22:17:00,
2013-06-18 18:22:00,73.6,71.4,29.77,SSW,202,0.0,0.0,93,0.46,RA,,0.54,WeatherDisplay:10.37,2013-06-18 22:22:00,
2013-06-18 18:27:00,73.2,71.4,29.80,SSW,202,0.0,0.0,94,0.54,RA,,0.58,WeatherDisplay:10.37,2013-06-18 22:27:00,
2013-06-18 18:32:00,72.9,71.0,29.80,SSW,202,0.0,0.0,94,0.58,RA,,0.62,WeatherDisplay:10.37,2013-06-18 22:32:00,
2013-06-18 18:37:00,72.3,70.5,29.80,SSW,202,0.0,0.0,94,0.58,RA,,0.62,WeatherDisplay:10.37,2013-06-18 22:37:00,
2013-06-18 18:42:00,72.1,70.3,29.80,SSW,202,0.0,0.0,94,0.58,CLR,,0.62,WeatherDisplay:10.37,2013-06-18 22:42:00,
2013-06-18 18:47:00,72.0,70.1,29.80,SSW,202,0.0,0.0,94,0.58,CLR,,0.62,WeatherDisplay:10.37,2013-06-18 22:47:00,
2013-06-18 18:52:00,71.6,69.8,29.80,SSW,202,0.0,0.0,94,0.58,CLR,,0.62,WeatherDisplay:10.37,2013-06-18 22:52:00,
2013-06-18 18:57:00,71.6,69.8,29.80,SSW,202,0.0,0.0,94,0.58,RA,,0.66,WeatherDisplay:10.37,2013-06-18 22:57:00,
2013-06-18 19:02:00,71.2,69.7,29.80,SSW,202,0.0,0.0,95,0.45,RA,,0.66,WeatherDisplay:10.37,2013-06-18 23:02:00,
2013-06-18 19:07:00,71.1,69.6,29.80,SSW,202,0.0,0.0,95,0.41,CLR,,0.66,WeatherDisplay:10.37,2013-06-18 23:07:00,
2013-06-18 19:12:00,71.1,69.9,29.80,SSW,202,0.0,0.0,96,0.41,CLR,,0.66,WeatherDisplay:10.37,2013-06-18 23:12:00,
2013-06-18 19:17:00,71.1,69.9,29.80,SSW,202,0.0,0.0,96,0.29,CLR,,0.66,WeatherDisplay:10.37,2013-06-18 23:17:00,
2013-06-18 19:22:00,71.1,69.9,29.80,SSW,202,0.0,0.0,96,0.16,CLR,,0.66,WeatherDisplay:10.37,2013-06-18 23:22:00,
2013-06-18 19:27:00,71.1,69.9,29.80,SSW,202,0.0,0.0,96,0.08,CLR,,0.66,WeatherDisplay:10.37,2013-06-18 23:27:00,
2013-06-18 19:32:00,71.1,70.2,29.80,SSW,202,0.0,0.0,97,0.04,CLR,,0.66,WeatherDisplay:10.37,2013-06-18 23:32:00,
2013-06-18 19:37:00,71.1,70.2,29.80,SSW,202,0.0,0.0,97,0.04,CLR,,0.66,WeatherDisplay:10.37,2013-06-18 23:37:00,
2013-06-18 19:42:00,71.1,70.2,29.80,SSW,202,0.0,0.0,97,0.04,CLR,,0.66,WeatherDisplay:10.37,2013-06-18 23:42:00,
2013-06-18 19:47:00,70.9,70.0,29.80,SSW,202,0.0,0.0,97,0.04,CLR,,0.66,WeatherDisplay:10.37,2013-06-18 23:47:00,
2013-06-18 19:52:00,70.9,70.0,29.80,SSW,202,0.0,0.0,97,0.04,CLR,,0.66,WeatherDisplay:10.37,2013-06-18 23:52:00,
2013-06-18 19:57:00,70.9,70.0,29.80,SSW,202,0.0,0.0,97,0.00,CLR,,0.66,WeatherDisplay:10.37,2013-06-18 23:57:00,
2013-06-18 20:02:00,70.9,70.0,29.80,SSW,202,0.0,0.0,97,0.00,CLR,,0.66,WeatherDisplay:10.37,2013-06-19 00:02:00,
2013-06-18 20:07:00,70.9,70.0,29.80,SSW,202,0.0,0.0,97,0.00,CLR,,0.66,WeatherDisplay:10.37,2013-06-19 00:07:00,
2013-06-18 20:12:00,71.1,70.2,29.80,SSW,202,0.0,0.0,97,0.00,CLR,,0.66,WeatherDisplay:10.37,2013-06-19 00:12:00,
2013-06-18 20:17:00,70.9,70.3,29.80,SSW,202,0.0,0.0,98,0.00,CLR,,0.66,WeatherDisplay:10.37,2013-06-19 00:17:00,
2013-06-18 20:22:00,70.9,70.3,29.80,SSW,202,0.0,0.0,98,0.00,CLR,,0.66,WeatherDisplay:10.37,2013-06-19 00:22:00,
2013-06-18 20:27:00,70.9,70.3,29.83,SSW,202,0.0,0.0,98,0.00,CLR,,0.66,WeatherDisplay:10.37,2013-06-19 00:27:00,
2013-06-18 20:32:00,70.9,70.3,29.83,SSW,202,0.0,0.0,98,0.00,CLR,,0.66,WeatherDisplay:10.37,2013-06-19 00:32:00,
2013-06-18 20:37:00,70.9,70.3,29.83,SSW,202,0.0,0.0,98,0.00,CLR,,0.66,WeatherDisplay:10.37,2013-06-19 00:37:00,
2013-06-18 20:42:00,70.7,70.1,29.83,SSW,202,0.0,0.0,98,0.00,CLR,,0.66,WeatherDisplay:10.37,2013-06-19 00:42:00,
2013-06-18 20:47:00,70.7,70.1,29.83,SSW,202,0.0,0.0,98,0.00,CLR,,0.66,WeatherDisplay:10.37,2013-06-19 00:47:00,
2013-06-18 20:52:00,70.7,70.1,29.83,SSW,202,0.0,0.0,98,0.00,CLR,,0.66,WeatherDisplay:10.37,2013-06-19 00:52:00,
2013-06-18 20:57:00,70.5,69.9,29.83,SSW,202,0.0,0.0,98,0.00,CLR,,0.66,WeatherDisplay:10.37,2013-06-19 00:57:00,
2013-06-18 21:02:00,70.5,69.9,29.83,SSW,202,0.0,0.0,98,0.00,CLR,,0.66,WeatherDisplay:10.37,2013-06-19 01:02:00,
2013-06-18 21:07:00,70.5,69.9,29.83,SSW,202,0.0,0.0,98,0.00,CLR,,0.66,WeatherDisplay:10.37,2013-06-19 01:07:00,
2013-06-18 21:12:00,70.5,69.9,29.80,SSW,202,0.0,0.0,98,0.00,CLR,,0.66,WeatherDisplay:10.37,2013-06-19 01:12:00,
2013-06-18 21:17:00,70.5,69.9,29.80,SSW,202,0.0,0.0,98,0.00,CLR,,0.66,WeatherDisplay:10.37,2013-06-19 01:17:00,
2013-06-18 21:22:00,70.5,69.9,29.80,SSW,202,0.0,0.0,98,0.00,CLR,,0.66,WeatherDisplay:10.37,2013-06-19 01:22:00,
2013-06-18 21:27:00,70.5,69.9,29.83,SSW,202,0.0,0.0,98,0.00,CLR,,0.66,WeatherDisplay:10.37,2013-06-19 01:27:00,
2013-06-18 21:32:00,70.5,69.9,29.83,SSW,202,0.0,0.0,98,0.00,CLR,,0.66,WeatherDisplay:10.37,2013-06-19 01:32:00,
2013-06-18 21:37:00,70.5,69.9,29.83,SSW,202,0.0,0.0,98,0.00,CLR,,0.66,WeatherDisplay:10.37,2013-06-19 01:37:00,
2013-06-18 21:42:00,70.5,69.9,29.83,SSW,202,0.0,0.0,98,0.00,CLR,,0.66,WeatherDisplay:10.37,2013-06-19 01:42:00,
2013-06-18 21:47:00,70.5,69.9,29.83,SSW,202,0.0,0.0,98,0.00,CLR,,0.66,WeatherDisplay:10.37,2013-06-19 01:47:00,
2013-06-18 21:52:00,70.5,69.9,29.83,SSW,202,0.0,0.0,98,0.00,CLR,,0.66,WeatherDisplay:10.37,2013-06-19 01:52:00,
2013-06-18 21:57:00,70.5,69.9,29.83,SSW,202,0.0,0.0,98,0.00,CLR,,0.66,WeatherDisplay:10.37,2013-06-19 01:57:00,
2013-06-18 22:02:00,70.7,70.1,29.83,SSW,202,0.0,0.0,98,0.00,CLR,,0.66,WeatherDisplay:10.37,2013-06-19 02:02:00,
2013-06-18 22:07:00,70.7,70.1,29.83,SSW,202,0.0,0.0,98,0.00,CLR,,0.66,WeatherDisplay:10.37,2013-06-19 02:07:00,
2013-06-18 22:12:00,70.7,70.1,29.83,SSW,202,0.0,0.0,98,0.00,CLR,,0.66,WeatherDisplay:10.37,2013-06-19 02:12:00,
2013-06-18 22:17:00,70.7,70.1,29.83,SSW,202,0.0,0.0,98,0.00,CLR,,0.66,WeatherDisplay:10.37,2013-06-19 02:17:00,
2013-06-18 22:22:00,70.5,69.9,29.83,SSW,202,0.0,0.0,98,0.00,CLR,,0.66,WeatherDisplay:10.37,2013-06-19 02:22:00,
2013-06-18 22:27:00,70.5,69.9,29.85,SSW,202,0.0,0.0,98,0.00,CLR,,0.66,WeatherDisplay:10.37,2013-06-19 02:27:00,
2013-06-18 22:32:00,70.5,69.9,29.85,SSW,202,0.0,0.0,98,0.00,CLR,,0.66,WeatherDisplay:10.37,2013-06-19 02:32:00,
2013-06-18 22:37:00,70.5,69.9,29.85,SSW,202,0.0,0.0,98,0.00,CLR,,0.66,WeatherDisplay:10.37,2013-06-19 02:37:00,
2013-06-18 22:42:00,70.5,69.9,29.85,SSW,202,0.0,0.0,98,0.00,CLR,,0.66,WeatherDisplay:10.37,2013-06-19 02:42:00,
2013-06-18 22:47:00,70.5,69.9,29.85,SSW,202,0.0,0.0,98,0.00,CLR,,0.66,WeatherDisplay:10.37,2013-06-19 02:47:00,
2013-06-18 22:52:00,70.5,69.9,29.85,SSW,202,0.0,0.0,98,0.00,CLR,,0.66,WeatherDisplay:10.37,2013-06-19 02:52:00,
2013-06-18 22:57:00,70.5,69.9,29.85,SSW,202,0.0,0.0,98,0.00,CLR,,0.66,WeatherDisplay:10.37,2013-06-19 02:57:00,
2013-06-18 23:02:00,70.3,69.7,29.85,SSW,202,0.0,0.0,98,0.00,CLR,,0.66,WeatherDisplay:10.37,2013-06-19 03:02:00,
2013-06-18 23:07:00,70.3,69.7,29.85,SSW,202,0.0,0.0,98,0.00,CLR,,0.66,WeatherDisplay:10.37,2013-06-19 03:07:00,
2013-06-18 23:12:00,70.5,69.9,29.85,SSW,202,0.0,0.0,98,0.00,CLR,,0.66,WeatherDisplay:10.37,2013-06-19 03:12:00,
2013-06-18 23:17:00,70.5,69.9,29.85,SSW,202,0.0,0.0,98,0.00,CLR,,0.66,WeatherDisplay:10.37,2013-06-19 03:17:00,
2013-06-18 23:22:00,70.5,69.9,29.85,SSW,202,0.0,0.0,98,0.00,CLR,,0.66,WeatherDisplay:10.37,2013-06-19 03:22:00,
2013-06-18 23:27:00,70.5,69.9,29.85,SSW,202,0.0,0.0,98,0.00,CLR,,0.66,WeatherDisplay:10.37,2013-06-19 03:27:00,
2013-06-18 23:32:00,70.5,69.9,29.85,SSW,202,0.0,0.0,98,0.00,CLR,,0.66,WeatherDisplay:10.37,2013-06-19 03:32:00,
2013-06-18 23:37:00,70.7,70.1,29.85,SSW,202,0.0,0.0,98,0.00,CLR,,0.66,WeatherDisplay:10.37,2013-06-19 03:37:00,
2013-06-18 23:42:00,70.7,70.1,29.85,SSW,202,0.0,0.0,98,0.00,CLR,,0.66,WeatherDisplay:10.37,2013-06-19 03:42:00,
2013-06-18 23:47:00,70.5,69.9,29.85,SSW,202,0.0,0.0,98,0.00,CLR,,0.66,WeatherDisplay:10.37,2013-06-19 03:47:00,
2013-06-18 23:52:00,70.3,69.7,29.85,SSW,202,0.0,0.0,98,0.00,CLR,,0.66,WeatherDisplay:10.37,2013-06-19 03:52:00,
2013-06-18 23:57:00,70.3,69.7,29.85,SSW,202,0.0,0.0,98,0.00,CLR,,0.66,WeatherDisplay:10.37,2013-06-19 03:57:00,